Location: Mount Tamalpais State Park
(37.9108°N, 122.6128°W)
Time: 21:44:41
(UTC-08:00)

Cosmos 1814 Rocket - Visible Passes

Search period start: 26 January 2015 00:00
Search period end: 05 February 2015 00:00
Orbit: 745 x 789 km, 74.1° (Epoch: 25 January)

Date Brightness Start Highest point End Pass type
(mag) Time Alt. Az. Time Alt. Az. Time Alt. Az.
26 Jan 4.0 19:24:30 10° N 19:29:29 60° NE 19:29:29 60° NE visible
26 Jan 6.8 21:08:25 10° WNW 21:09:50 13° WNW 21:09:50 13° WNW visible
27 Jan 4.6 18:47:24 10° N 18:52:18 35° ENE 18:54:58 22° ESE visible
27 Jan 6.0 20:29:47 10° NW 20:34:12 26° W 20:35:25 24° WSW visible
28 Jan 5.2 18:10:37 10° N 18:14:38 21° ENE 18:18:45 10° ESE visible
28 Jan 5.0 19:51:51 10° NNW 19:56:58 46° WSW 20:02:01 10° S visible
29 Jan 4.1 19:14:17 10° NNW 19:19:39 81° WSW 19:24:59 10° SSE visible
30 Jan 4.1 18:36:57 10° N 18:42:14 58° ENE 18:47:30 10° SSE visible
30 Jan 6.8 20:20:39 10° WNW 20:23:50 15° W 20:26:45 10° SW visible
31 Jan 4.7 17:59:53 10° N 18:04:42 34° ENE 18:09:33 10° SE visible
31 Jan 6.1 19:42:08 10° NW 19:46:39 27° W 19:51:02 10° SSW visible
01 Feb 5.0 19:04:15 10° NNW 19:09:25 48° WSW 19:14:30 10° S visible
02 Feb 4.1 18:26:42 10° NNW 18:32:05 86° WSW 18:37:25 10° SSE visible
03 Feb 7.0 19:32:55 10° WNW 19:36:17 16° W 19:39:25 10° SW visible
04 Feb 6.2 18:54:29 10° NW 18:59:06 29° W 19:03:35 10° SSW visible
